Location: Alsip
(41.6689°N, 87.7387°W)
Time: 15:16:47
(UTC+00:00)

ARIANE 5 R/B - Pass Details

Date: 14 July 2020
Orbit: 749 x 794 km, 98.6° (Epoch: 13 August)

Event Time Altitude Azimuth Distance (km) Brightness Sun altitude
Rises 09:33:12 0° 3° (N) 3,237 6.5 -9.4°
Reaches altitude 10° 09:35:41 10° 354° (N) 2,313 5.5 -9.0°
Maximum altitude 09:40:10 32° 293° (WNW) 1,300 3.5 -8.4°
Drops below altitude 10° 09:44:41 10° 231° (SW) 2,326 4.3 -7.7°
Enters shadow 09:44:50 - 230° (SW) 2,380 4.3 -7.7°
